Weather History for Sheridan, WY

Change the Weather History Date:

Wednesday, March 26, 2014

  Actual Average Record
Temperature  
Mean Temperature 44 °F 38 °F  
Max Temperature 54 °F 52 °F 76 °F (2004)
Min Temperature 34 °F 25 °F -16 °F (1913)
Degree Days  
Heating Degree Days 21 27  
Month to date heating degree days 853 795  
Since 1 July heating degree days 6603 6330  
Cooling Degree Days 0 0  
Month to date cooling degree days 0 0  
Year to date cooling degree days 0 0  
Moisture  
Dew Point 28 °F    
Average Humidity 58    
Maximum Humidity 85    
Minimum Humidity 31    
Precipitation  
Precipitation 0.00 in 0.04 in 0.28 in (1935)
Month to date precipitation 1.17 0.78  
Year to date precipitation 3.02 1.88  
Sea Level Pressure  
Sea Level Pressure 29.48 in    
Wind  
Wind Speed 9 mph (NNW)    
Max Wind Speed 23 mph    
Max Gust Speed 27 mph    
Visibility 10 miles    
Events      
T = Trace of Precipitation, MM = Missing Value Source: NWS Daily Summary

Daily Weather History Graph

Daily Weather History Graph

Search for Another Location

Airport:

Trip Planner

Search our weather history database for the weather conditions in past years. The results will help you decide how hot, cold, wet, or windy it might be!

Date:

Astronomy

Mar. 26, 2014 Rise Set
Actual Time 6:59 AM MDT 7:28 PM MDT
Civil Twilight 6:30 AM MDT 7:57 PM MDT
Nautical Twilight 5:55 AM MDT 8:32 PM MDT
Astronomical Twilight 5:20 AM MDT 9:07 PM MDT
Moon 4:20 AM MDT (3/26) 3:00 PM MDT (3/26)
Length of Visible Light 13h 26m
Length of Day
12h 28m
Waning Crescent, 21% of the Moon is Illuminated
Mar 26
Waning Crescent
Mar 30
New
Apr 7
First Quarter
Apr 15
Full
Apr 22
Last Quarter

Hourly Weather History & Observations

Time (MDT) Temp. Windchill Dew Point Humidity Pressure Visibility Wind Dir Wind Speed Gust Speed Precip Events Conditions
12:53 AM 35.1 °F 32.2 °F 24.1 °F 64% 29.56 in 10.0 mi Variable 3.5 mph - N/A   Clear
1:53 AM 48.9 °F - 19.9 °F 32% 29.48 in 10.0 mi SE 5.8 mph 19.6 mph N/A   Clear
2:53 AM 48.0 °F - 19.0 °F 32% 29.44 in 10.0 mi Variable 3.5 mph - N/A   Clear
3:53 AM 44.1 °F - 21.0 °F 40% 29.42 in 10.0 mi Calm Calm - N/A   Clear
4:53 AM 41.0 °F 39.0 °F 23.0 °F 49% 29.39 in 10.0 mi ESE 3.5 mph - N/A   Clear
5:53 AM 42.1 °F 38.4 °F 21.9 °F 45% 29.38 in 10.0 mi NW 5.8 mph - N/A   Clear
6:53 AM 36.0 °F 30.3 °F 26.1 °F 67% 29.42 in 10.0 mi NNE 6.9 mph - N/A   Clear
7:37 AM 39.9 °F 35.8 °F 27.0 °F 60% 29.43 in 10.0 mi NE 5.8 mph 20.7 mph N/A   Clear
7:53 AM 42.1 °F 38.4 °F 25.0 °F 51% 29.46 in 10.0 mi NW 5.8 mph - N/A   Clear
8:53 AM 43.0 °F 38.2 °F 26.1 °F 51% 29.47 in 10.0 mi WNW 8.1 mph - N/A   Clear
9:53 AM 46.0 °F 40.2 °F 27.0 °F 47% 29.47 in 10.0 mi NNW 12.7 mph - N/A   Clear
10:53 AM 50.0 °F - 28.0 °F 43% 29.50 in 10.0 mi NNW 17.3 mph - N/A   Partly Cloudy
11:53 AM 48.0 °F - 28.9 °F 48% 29.50 in 10.0 mi NW 17.3 mph - N/A   Partly Cloudy
12:53 PM 51.1 °F - 28.0 °F 41% 29.49 in 10.0 mi NW 16.1 mph - N/A   Clear
1:53 PM 52.0 °F - 28.0 °F 40% 29.44 in 10.0 mi NNW 16.1 mph 26.5 mph N/A   Clear
2:53 PM 52.0 °F - 30.0 °F 43% 29.43 in 10.0 mi NNW 16.1 mph - N/A   Clear
3:53 PM 50.0 °F - 28.9 °F 44% 29.45 in 10.0 mi NNW 16.1 mph - N/A   Clear
4:53 PM 48.0 °F - 28.9 °F 48% 29.47 in 10.0 mi NNW 13.8 mph - N/A   Scattered Clouds
5:53 PM 46.0 °F 40.6 °F 30.0 °F 54% 29.48 in 10.0 mi NNW 11.5 mph - N/A   Overcast
6:53 PM 44.1 °F 38.6 °F 30.0 °F 58% 29.51 in 10.0 mi NW 10.4 mph - N/A   Overcast
7:53 PM 42.1 °F 35.2 °F 30.9 °F 65% 29.52 in 10.0 mi WNW 12.7 mph - N/A   Overcast
8:53 PM 37.9 °F 30.5 °F 33.1 °F 83% 29.56 in 10.0 mi NW 11.5 mph - N/A   Overcast
9:26 PM 37.9 °F 32.7 °F 33.1 °F 83% 29.54 in 10.0 mi NW 6.9 mph - N/A   Overcast
9:53 PM 37.9 °F 34.4 °F 33.1 °F 83% 29.57 in 10.0 mi NW 4.6 mph - N/A   Overcast
10:53 PM 37.0 °F 34.5 °F 33.1 °F 86% 29.56 in 10.0 mi NNW 3.5 mph - N/A   Overcast
11:03 PM 37.0 °F - 33.1 °F 86% 29.55 in 10.0 mi Calm Calm - N/A   Overcast
11:53 PM 37.0 °F 34.5 °F 33.1 °F 86% 29.57 in 10.0 mi NW 3.5 mph - N/A   Overcast